Regional Weather Roundup
Issued by NWS

Home | Current Version | Previous Version | Text Only | Print | Product List | Glossary On
Versions: 1 2 3 4 5 6 7 8 9 10 11 12 13 14 15 16 17 18 19 20 21 22 23 24 25 26 27 28 29 30 31 32 33 34 35 36 37 38 39 40 41 42 43 44 45 46 47 48 49 50
000
ASUS44 KFWD 261701
RWRTX
NORTH TEXAS HOURLY WEATHER ROUNDUP
NATIONAL WEATHER SERVICE FORT WORTH TX
1200 PM CDT TUE JUL 26 2016

NOTE: "FAIR" INDICATES FEW OR NO CLOUDS BELOW 12,000 FEET WITH NO
SIGNIFICANT WEATHER AND/OR OBSTRUCTIONS TO VISIBILITY.

TXZ118-119-261800-
DALLAS/FORT WORTH METROPLEX

CITY           SKY/WX    TMP DP  RH WIND       PRES   REMARKS
DFW AIRPORT    MOSUNNY   91  71  51 VRB5      29.97S HX  97
DALLAS LOVE    MOSUNNY   91  72  53 SE5       29.97S HX  98
FTW MEACHAM    SUNNY     92  69  47 SE9       29.97F HX  97
DAL-EXECUTIVE  SUNNY     91  69  48 VRB6      29.97F HX  96
FTW-ALLIANCE   MOSUNNY   90  70  51 S6        29.98S HX  95
FTW-NAS-JRB    MOSUNNY   93  69  45 SE8       29.98S HX  98
FTW-SPINKS     MOSUNNY   90  70  51 CALM      29.99F HX  95
ARLINGTON      SUNNY     90  70  51 VRB5      29.97F HX  95
GRAND PRAIRIE  SUNNY     90  70  51 E7        29.99F HX  95
ADDISON        MOSUNNY   90  73  58 SW5       29.99S HX  98
MESQUITE       SUNNY     88  73  62 VRB3      29.97F HX  96
LANCASTER      SUNNY     91  71  53 SE5       29.98F HX  97
$$

TXZ091>094-102>105-117-120-121-131>134-261800-
NORTH CENTRAL TEXAS

CITY           SKY/WX    TMP DP  RH WIND       PRES   REMARKS
SHRMAN/DENISON NOT AVBL
BOWIE          MOSUNNY   88  70  54 CALM      30.01S HX  93
BRIDGEPORT     MOSUNNY   89  72  58 SE5       30.02R HX  96
DECATUR        SUNNY     89  68  50 SE3       30.01S HX  92
DENTON         SUNNY     90  72  55 VRB6      29.98S HX  97
MCKINNEY       MOSUNNY   89  73  59 VRB3      29.98S HX  97
GREENVILLE     SUNNY     90  70  51 CALM      29.97F HX  95
ROCKWALL       SUNNY     89  74  59 S7        29.97S HX  98
TERRELL        PTSUNNY   91  71  51 VRB3      29.97F HX  97
WAXAHACHIE     SUNNY     89  72  57 CALM      29.99S HX  95
CLEBURNE       SUNNY     88  73  62 CALM      30.00F HX  96
GRANBURY       SUNNY     92  68  45 E6        29.99F HX  96
$$

TXZ083>090-098>101-113>116-127>130-139>142-154-155-261800-
WESTERN NORTH TEXAS

CITY           SKY/WX    TMP DP  RH WIND       PRES   REMARKS
WICHITA FALLS  CLOUDY    87  69  54 S3        30.00S HX  91
WF-KICKAPOO    PTSUNNY   91  68  46 SE5       30.02S HX  95
VERNON         CLOUDY    87  67  51 S7        30.02S HX  90
ABILENE        SUNNY     89  66  46 CALM      30.02F HX  91
ABILENE-DYESS  SUNNY     91  65  41 VRB3      30.01S HX  93
CISCO          SUNNY     88  68  51 CALM      30.03F HX  91
GRAHAM         SUNNY     92  69  46 SE5       29.99S HX  97
MINERAL WELLS  SUNNY     90  69  50 VRB5      29.98F HX  94
STEPHENVILLE   SUNNY     89  67  47 N5        30.03S HX  92
COMANCHE       SUNNY     87  70  55 NE5       30.01F HX  92
COLEMAN        SUNNY     88  65  46 NE6       30.02F HX  90
$$

TXZ143>147-156>162-174-175-261800-
CENTRAL TEXAS

CITY           SKY/WX    TMP DP  RH WIND       PRES   REMARKS
WACO           MOSUNNY   88  72  58 N6        29.97S HX  94
WACO-TSTC      MOSUNNY   86  73  66 VRB5      29.97S HX  93
WACO-MCGREGOR  MOSUNNY   89  74  60 E9        29.98S HX  98
HILLSBORO      MOSUNNY   87  71  58 NE6       29.98S HX  92
CORSICANA      MOSUNNY   90  72  55 E5        29.98S HX  97
MEXIA          MOSUNNY   88  72  59 NE3       29.97S HX  95
HEARNE         PTSUNNY   86  74  66 CALM      29.97S HX  94
CAMERON        SUNNY     88  74  63 E6        29.96S HX  96
TEMPLE         MOSUNNY   87  74  64 E6        29.98S HX  95
KILLEEN        PTSUNNY   84  71  65 VRB7      29.98
KILLEEN-SKYLRK PTSUNNY   86  74  67 VRB3      29.99S HX  94
FORT HOOD      MOSUNNY   85  72  65 N7        29.97  HX  91
HAMILTON       MOSUNNY   89  70  53 E5        30.01S HX  94
$$

TXZ095>097-106>112-122>126-135>138-148>153-164>167-261800-
EAST TEXAS

CITY           SKY/WX    TMP DP  RH WIND       PRES   REMARKS
PARIS          PTSUNNY   90  70  51 NE9       29.98S HX  95
SULPHUR SPRNGS MOSUNNY   92  72  51 E5        29.99S HX  99
MOUNT PLEASANT MOSUNNY   92  69  46 E7        29.97F HX  97
GILMER         MOSUNNY   89  73  59 CALM      29.97S HX  97
MINEOLA        MOSUNNY   90  75  62 NW3       29.98S HX 100
TYLER          MOSUNNY   90  72  55 CALM      29.96F HX  97
LONGVIEW       MOSUNNY   89  75  63 E8        29.95F HX  99
MARSHALL       MOSUNNY   88  73  61 E5        29.98S HX  96
ATHENS         CLOUDY    86  72  62 CALM      29.96S HX  92
PALESTINE      MOSUNNY   86  74  68 CALM      29.98S HX  94
JACKSONVILLE   MOSUNNY   86  73  65 E7        30.00S HX  93
HENDERSON      MOSUNNY   88  73  59 E7        29.97S HX  95
CENTER         PTSUNNY   87  75  68 MISG      29.97F HX  96
NACOGDOCHES    MOSUNNY  N/A N/A N/A E6        29.94S
LUFKIN         PTSUNNY   85  74  69 NE3       29.95F HX  92
$$

SUPPLEMENTAL OBSERVATIONS (CENTRAL)

CITY           SKY/WX    TMP DP  RH WIND       PRES   REMARKS
$$

SUPPLEMENTAL OBSERVATIONS (WEST)

CITY           SKY/WX    TMP DP  RH WIND       PRES   REMARKS
$$

SUPPLEMENTAL OBSERVATIONS (EAST)

CITY           SKY/WX    TMP DP  RH WIND       PRES   REMARKS
$$

SUPPLEMENTAL OBSERVATIONS ARE A COLLECTION OF AUTOMATED INSTRUMENTS
THAT ARE MAINTAINED BY A VARIETY OF FEDERAL AND STATE AGENCIES.
CERTAIN ELEMENTS...SUCH AS HUMIDITY VALUES AND SUSTAINED WIND
SPEEDS...MAY BE APPROXIMATED.





USA.gov is the U.S. government's official web portal to all federal, state and local government web resources and services.